Location: Bernadets
(43.3537°N, 0.3167°E)
Time: 04:15:03
(UTC+00:00)

Cosmos 1934 Rocket - Pass Details

Date: 24 October 2021
Orbit: 938 x 999 km, 83.0° (Epoch: 29 November)

Event Time Altitude Azimuth Distance (km) Brightness Sun altitude
Rises 17:24:36 0° 166° (SSE) 3,614 7.0 -4.9°
Reaches altitude 10° 17:27:12 10° 160° (SSE) 2,665 6.2 -5.4°
Maximum altitude 17:32:54 44° 90° (E) 1,285 4.3 -6.4°
Drops below altitude 10° 17:38:35 10° 20° (NNE) 2,662 6.0 -7.4°
Sets 17:41:10 0° 14° (NNE) 3,610 6.7 -7.9°
